TimeCST,TemperatureF,Dew PointF,Humidity,Sea Level PressureIn,VisibilityMPH,Wind Direction,Wind SpeedMPH,Gust SpeedMPH,PrecipitationIn,Events,Conditions,WindDirDegrees,DateUTC
12:52 AM,19.9,16.0,85,30.01,-9999.0,Calm,Calm,-,N/A,,Unknown,0,2013-02-05 06:52:00
1:52 AM,24.1,19.0,81,29.99,-9999.0,South,3.5,-,N/A,,Unknown,190,2013-02-05 07:52:00
2:52 AM,25.0,19.9,81,29.98,-9999.0,Calm,Calm,-,N/A,,Unknown,0,2013-02-05 08:52:00
3:52 AM,25.0,19.9,81,29.98,-9999.0,South,3.5,-,N/A,,Unknown,170,2013-02-05 09:52:00
4:52 AM,26.1,21.0,81,29.96,-9999.0,South,4.6,-,N/A,,Unknown,190,2013-02-05 10:52:00
5:52 AM,25.0,21.0,85,29.97,-9999.0,SSW,5.8,-,N/A,,Unknown,200,2013-02-05 11:52:00
6:52 AM,26.1,21.9,84,29.96,-9999.0,SSW,4.6,-,N/A,,Unknown,210,2013-02-05 12:52:00
7:52 AM,27.0,21.9,81,29.98,-9999.0,SSW,5.8,-,N/A,,Unknown,200,2013-02-05 13:52:00
8:52 AM,28.9,24.1,82,29.97,-9999.0,SW,5.8,-,N/A,,Unknown,230,2013-02-05 14:52:00
9:52 AM,34.0,26.1,73,29.98,-9999.0,WSW,8.1,-,N/A,,Unknown,240,2013-02-05 15:52:00
10:52 AM,41.0,28.9,62,29.99,-9999.0,WNW,9.2,-,N/A,,Unknown,290,2013-02-05 16:52:00
11:52 AM,46.0,30.0,54,29.99,-9999.0,NW,8.1,-,N/A,,Unknown,310,2013-02-05 17:52:00
12:52 PM,51.1,32.0,48,29.99,-9999.0,NW,9.2,-,N/A,,Unknown,310,2013-02-05 18:52:00
1:52 PM,52.0,30.9,45,29.99,-9999.0,NW,13.8,23.0,N/A,,Unknown,310,2013-02-05 19:52:00
2:52 PM,53.1,30.9,43,30.00,-9999.0,NW,10.4,-,N/A,,Unknown,320,2013-02-05 20:52:00
3:52 PM,52.0,28.9,41,30.03,-9999.0,NW,9.2,19.6,N/A,,Unknown,320,2013-02-05 21:52:00
4:52 PM,50.0,28.0,43,30.05,-9999.0,NW,8.1,-,N/A,,Unknown,320,2013-02-05 22:52:00
5:52 PM,44.1,28.0,53,30.07,-9999.0,NW,3.5,-,N/A,,Unknown,320,2013-02-05 23:52:00
6:52 PM,37.0,27.0,67,30.09,-9999.0,Calm,Calm,-,N/A,,Unknown,0,2013-02-06 00:52:00
7:52 PM,32.0,26.1,79,30.12,-9999.0,Calm,Calm,-,N/A,,Unknown,0,2013-02-06 01:52:00
8:52 PM,32.0,26.1,79,30.13,-9999.0,Calm,Calm,-,N/A,,Unknown,0,2013-02-06 02:52:00
9:52 PM,30.9,26.1,82,30.15,-9999.0,NNE,3.5,-,N/A,,Unknown,20,2013-02-06 03:52:00
10:52 PM,32.0,26.1,79,30.15,-9999.0,Calm,Calm,-,N/A,,Unknown,0,2013-02-06 04:52:00
11:52 PM,28.0,24.1,85,30.17,-9999.0,Calm,Calm,-,N/A,,Unknown,0,2013-02-06 05:52:00